Regional Weather Roundup
Issued by NWS

Home | Current Version | Previous Version | Graphics & Text | Print | Product List | Glossary On
Versions: 1 2 3 4 5 6 7 8 9 10 11 12 13 14 15 16 17 18 19 20 21 22 23 24 25 26 27 28 29 30 31 32 33 34 35 36 37 38 39 40 41 42 43 44 45 46 47 48 49 50
000
ASUS43 KOAX 161702
RWRNE

WEATHER ROUNDUP FOR NEBRASKA
NATIONAL WEATHER SERVICE OMAHA NE
1200 PM CDT MON OCT 16 2017

NOTES: SATELLITE DATA IS BEING USED TO AUGMENT CLOUD COVER ABOVE
       12000 FEET.
       "FAIR" INDICATES FEW OR NO CLOUDS BELOW 12,000 FEET WITH NO
       SIGNIFICANT WEATHER AND/OR OBSTRUCTIONS TO VISIBILITY.


NEZ001>004-019>022-054>056-161800-
NEBRASKA PANHANDLE

CITY           SKY/WX    TMP DP  RH WIND       PRES   REMARKS
SCOTTSBLUFF    SUNNY     58  30  34 NW3       30.21F
ALLIANCE       SUNNY     67  24  19 MISG      30.18F
CHADRON        SUNNY     67  22  18 SW12      30.15F
GORDON         FAIR      62  32  31 SW5       30.16F
KIMBALL        SUNNY     71  22  15 W15       30.25F
SIDNEY         CLOUDY    70  30  22 W5        30.23F
$$

NEZ057>060-069>072-079>082-161800-
SOUTHWEST NEBRASKA

CITY           SKY/WX    TMP DP  RH WIND       PRES   REMARKS
NORTH PLATTE   CLOUDY    64  41  42 VRB6      30.21F
IMPERIAL       SUNNY     69  27  20 SW9       30.23F
LEXINGTON      SUNNY     67  35  31 SW15G22   30.24F
MCCOOK         SUNNY     64  39  39 SW8       30.24F
OGALLALA       SUNNY     59  36  41 W5        30.22F
$$

NEZ005>010-023>029-035>040-094-161800-
NORTH CENTRAL NEBRASKA

CITY           SKY/WX    TMP DP  RH WIND       PRES   REMARKS
VALENTINE      SUNNY     67  31  26 W12       30.13F
AINSWORTH      SUNNY     65  35  32 SW10      30.15F
BROKEN BOW     SUNNY     66  39  37 SW10      30.21F
O`NEILL        SUNNY     65  39  37 SW10G16   30.17F
ORD            SUNNY     65  35  33 S16       30.20F
THEDFORD       SUNNY     69  31  24 SW9       30.17F
$$

NEZ041-046>049-061>064-073>077-083>087-161800-
SOUTH CENTRAL NEBRASKA

CITY           SKY/WX    TMP DP  RH WIND       PRES   REMARKS
GRAND ISLAND   SUNNY     66  38  35 S14       30.25F
AURORA         SUNNY     66  36  32 SW15G22   30.26F
HASTINGS       SUNNY     65  34  31 SW18      30.27F
HEBRON         SUNNY     67  35  31 SW14      30.30F
KEARNEY        SUNNY     69  35  28 SW20G25   30.24F
YORK           SUNNY     66  37  34 SW15      30.27F
$$

NEZ011>018-030>034-042>045-161800-
NORTHEAST NEBRASKA

CITY           SKY/WX    TMP DP  RH WIND       PRES   REMARKS
NORFOLK        SUNNY     66  35  31 S20       30.21F
ALBION         SUNNY     66  37  34 SW14G20   30.22F
BLAIR          SUNNY     65  38  37 S13       30.28F
COLUMBUS       SUNNY     66  37  34 S14       30.25F
FREMONT        SUNNY     65  38  37 S12       30.27F
TEKAMAH        SUNNY     67  33  28 S16G22    30.26F
WAYNE          SUNNY     66  31  26 S16G22    30.21F
$$

NEZ050>053-065>068-078-088>093-161800-
SOUTHEAST NEBRASKA

CITY           SKY/WX    TMP DP  RH WIND       PRES   REMARKS
LINCOLN        SUNNY     66  37  34 SW13G20   30.30F
OMAHA EPPLEY   SUNNY     64  40  41 S13       30.29F
BEATRICE       SUNNY     65  41  41 SW12      30.31F
FALLS CITY     SUNNY     65  38  36 S10       30.33F
NEBRASKA CITY  SUNNY     65  40  39 S14       30.32F
PLATTSMOUTH    SUNNY     66  37  34 S10       30.31F
$$

NEZ044-045-051>053-067-161800-
OMAHA AREA

CITY           SKY/WX    TMP DP  RH WIND       PRES   REMARKS
OMAHA EPPLEY   SUNNY     64  40  41 S13       30.29F
BLAIR          SUNNY     65  38  37 S13       30.28F
FREMONT        SUNNY     65  38  37 S12       30.27F
MILLARD        SUNNY     67  40  37 S10       30.30F
OFFUTT AFB     SUNNY     65  40  40 S12       30.30F
PLATTSMOUTH    SUNNY     66  37  34 S10       30.31F
WAHOO          FAIR      65  37  35 S12       30.28F
$$



USA.gov is the U.S. government's official web portal to all federal, state and local government web resources and services.